When you browse on this site, cookies collect data to enhance your experience and personalize the content and advertising you see.
Visit our Privacy Policy to learn more. By continuing to use the site, you agree to this use of cookies and data.
  • în România
  • Lista ţărilor
  • Pe 7 zile
  • Temperatura apei
  • Hartă satelitară
  • Meteo pe hartă
  • Widget-uri
  • user-avatar
    Intrare

    Meteo pe oră la Kaczowice

    Astăzi, 17 Iulie, Miercuri

    Timp Temperatura Precipitaţii Vânt Presiune Umiditate
    00:00 +12°C° 0 mm 3 m/s 736 mmHg 85%
    01:00 +12°C° 0 mm 3 m/s 736 mmHg 85%
    02:00 +12°C° 0.1 mm 3 m/s 736 mmHg 86%
    03:00 +13°C° 0.1 mm 4 m/s 736 mmHg 87%
    04:00 +13°C° 0.1 mm 4 m/s 736 mmHg 88%
    05:00 +13°C° 0.1 mm 4 m/s 735 mmHg 86%
    06:00 +14°C° 0.1 mm 5 m/s 735 mmHg 84%
    07:00 +15°C° 0 mm 5 m/s 735 mmHg 82%
    08:00 +16°C° 0.1 mm 6 m/s 735 mmHg 75%
    09:00 +19°C° 0.1 mm 6 m/s 735 mmHg 68%
    10:00 +20°C° 0.1 mm 7 m/s 735 mmHg 61%
    11:00 +20°C° 0.2 mm 7 m/s 735 mmHg 60%
    12:00 +20°C° 0.2 mm 6 m/s 735 mmHg 59%
    13:00 +20°C° 0.2 mm 6 m/s 735 mmHg 58%
    14:00 +21°C° 0.1 mm 6 m/s 735 mmHg 57%
    15:00 +21°C° 0.1 mm 6 m/s 735 mmHg 56%
    16:00 +21°C° 0.1 mm 6 m/s 735 mmHg 55%
    17:00 +20°C° 0 mm 5 m/s 735 mmHg 61%
    18:00 +19°C° 0 mm 4 m/s 735 mmHg 67%
    19:00 +17°C° 0 mm 3 m/s 735 mmHg 73%
    20:00 +16°C° 0 mm 2 m/s 736 mmHg 77%
    21:00 +15°C° 0 mm 2 m/s 736 mmHg 81%
    22:00 +14°C° 0 mm 2 m/s 736 mmHg 85%
    23:00 +13°C° 0 mm 2 m/s 736 mmHg 87%

    Mâine, 18 Iulie, Joi

    Timp Temperatura Precipitaţii Vânt Presiune Umiditate
    00:00 +13°C° 0 mm 1 m/s 736 mmHg 88%
    01:00 +13°C° 0 mm 1 m/s 736 mmHg 89%
    02:00 +12°C° 0 mm 1 m/s 736 mmHg 90%
    03:00 +12°C° 0 mm 1 m/s 736 mmHg 90%
    04:00 +12°C° 0 mm 1 m/s 736 mmHg 91%
    05:00 +14°C° 0 mm 1 m/s 736 mmHg 85%
    06:00 +15°C° 0 mm 1 m/s 737 mmHg 78%
    07:00 +18°C° 0 mm 1 m/s 737 mmHg 72%
    08:00 +19°C° 0 mm 1 m/s 737 mmHg 66%
    09:00 +21°C° 0 mm 1 m/s 737 mmHg 59%
    10:00 +21°C° 0 mm 2 m/s 737 mmHg 53%
    11:00 +22°C° 0 mm 1 m/s 737 mmHg 52%
    12:00 +23°C° 0 mm 1 m/s 737 mmHg 51%
    13:00 +23°C° 0 mm 1 m/s 737 mmHg 50%
    14:00 +23°C° 0 mm 1 m/s 737 mmHg 49%
    15:00 +23°C° 0 mm 1 m/s 737 mmHg 49%
    16:00 +23°C° 0 mm 1 m/s 737 mmHg 49%
    17:00 +22°C° 0 mm 1 m/s 737 mmHg 53%
    18:00 +21°C° 0 mm 1 m/s 737 mmHg 58%
    19:00 +20°C° 0 mm 1 m/s 737 mmHg 62%
    20:00 +19°C° 0 mm 1 m/s 737 mmHg 67%
    21:00 +16°C° 0 mm 1 m/s 737 mmHg 71%
    22:00 +15°C° 0 mm 1 m/s 738 mmHg 75%
    23:00 +14°C° 0 mm 1 m/s 738 mmHg 77%

    Poimâine, 19 Iulie, Vineri

    Timp Temperatura Precipitaţii Vânt Presiune Umiditate
    00:00 +14°C° 0 mm 1 m/s 738 mmHg 79%
    01:00 +14°C° 0 mm 1 m/s 738 mmHg 80%
    02:00 +13°C° 0 mm 1 m/s 738 mmHg 82%
    03:00 +13°C° 0 mm 1 m/s 738 mmHg 84%
    04:00 +13°C° 0 mm 1 m/s 738 mmHg 85%
    05:00 +15°C° 0 mm 1 m/s 738 mmHg 79%
    06:00 +18°C° 0 mm 1 m/s 738 mmHg 74%
    07:00 +20°C° 0 mm 1 m/s 738 mmHg 68%
    08:00 +22°C° 0 mm 1 m/s 738 mmHg 62%
    09:00 +23°C° 0 mm 1 m/s 738 mmHg 57%
    10:00 +25°C° 0 mm 1 m/s 738 mmHg 52%
    11:00 +25°C° 0 mm 1 m/s 738 mmHg 49%
    12:00 +26°C° 0 mm 2 m/s 738 mmHg 47%
    13:00 +27°C° 0 mm 2 m/s 738 mmHg 45%
    14:00 +27°C° 0 mm 1 m/s 738 mmHg 45%
    15:00 +27°C° 0 mm 1 m/s 738 mmHg 45%
    16:00 +27°C° 0 mm 1 m/s 738 mmHg 45%
    17:00 +26°C° 0 mm 1 m/s 738 mmHg 50%
    18:00 +25°C° 0 mm 1 m/s 738 mmHg 54%
    19:00 +23°C° 0 mm 1 m/s 738 mmHg 59%
    20:00 +22°C° 0.6 mm 1 m/s 738 mmHg 66%
    21:00 +21°C° 0.6 mm 1 m/s 738 mmHg 73%
    22:00 +19°C° 0.6 mm 1 m/s 738 mmHg 80%
    23:00 +19°C° 0.3 mm 1 m/s 738 mmHg 81%

    20 Iulie, Sâmbătă

    Timp Temperatura Precipitaţii Vânt Presiune Umiditate
    00:00 +19°C° 0.3 mm 1 m/s 738 mmHg 82%
    01:00 +19°C° 0.3 mm 1 m/s 738 mmHg 83%
    02:00 +19°C° 0.1 mm 1 m/s 738 mmHg 84%
    03:00 +18°C° 0.1 mm 1 m/s 738 mmHg 85%
    04:00 +18°C° 0.1 mm 1 m/s 739 mmHg 86%
    05:00 +19°C° 0 mm 1 m/s 739 mmHg 82%
    06:00 +21°C° 0 mm 1 m/s 739 mmHg 78%
    07:00 +22°C° 0 mm 1 m/s 739 mmHg 75%
    08:00 +23°C° 0.2 mm 1 m/s 739 mmHg 69%
    09:00 +25°C° 0.2 mm 1 m/s 740 mmHg 63%
    10:00 +26°C° 0.2 mm 1 m/s 740 mmHg 57%
    11:00 +27°C° 0.1 mm 1 m/s 740 mmHg 53%
    12:00 +28°C° 0.1 mm 1 m/s 740 mmHg 49%
    13:00 +29°C° 0.1 mm 1 m/s 740 mmHg 45%
    14:00 +29°C° 0 mm 1 m/s 740 mmHg 46%
    15:00 +29°C° 0 mm 1 m/s 739 mmHg 46%
    16:00 +29°C° 0 mm 1 m/s 739 mmHg 47%
    17:00 +27°C° 0 mm 1 m/s 740 mmHg 53%
    18:00 +26°C° 0 mm 1 m/s 740 mmHg 58%
    19:00 +24°C° 0 mm 1 m/s 740 mmHg 64%
    20:00 +23°C° 0 mm 1 m/s 740 mmHg 68%
    21:00 +22°C° 0 mm 1 m/s 740 mmHg 71%
    22:00 +21°C° 0 mm 1 m/s 740 mmHg 75%
    23:00 +21°C° 0 mm 1 m/s 740 mmHg 76%

    21 Iulie, Duminică

    Timp Temperatura Precipitaţii Vânt Presiune Umiditate
    00:00 +20°C° 0 mm 1 m/s 740 mmHg 78%
    01:00 +20°C° 0 mm 1 m/s 740 mmHg 79%
    02:00 +19°C° 0 mm 1 m/s 740 mmHg 80%
    03:00 +19°C° 0 mm 1 m/s 740 mmHg 80%
    04:00 +19°C° 0 mm 1 m/s 740 mmHg 80%
    05:00 +20°C° 0.1 mm 1 m/s 740 mmHg 76%
    06:00 +22°C° 0.1 mm 1 m/s 740 mmHg 72%
    07:00 +23°C° 0.1 mm 2 m/s 740 mmHg 68%
    08:00 +25°C° 0.2 mm 2 m/s 740 mmHg 63%
    09:00 +27°C° 0.2 mm 2 m/s 740 mmHg 59%
    10:00 +28°C° 0.2 mm 2 m/s 740 mmHg 55%
    11:00 +29°C° 0.1 mm 3 m/s 740 mmHg 52%
    12:00 +30°C° 0.1 mm 3 m/s 740 mmHg 49%
    13:00 +32°C° 0.1 mm 4 m/s 740 mmHg 46%
    14:00 +30°C° 0 mm 4 m/s 740 mmHg 48%
    15:00 +30°C° 0 mm 3 m/s 740 mmHg 51%
    16:00 +29°C° 0 mm 3 m/s 740 mmHg 53%
    17:00 +27°C° 0.8 mm 3 m/s 740 mmHg 63%
    18:00 +25°C° 0.8 mm 3 m/s 740 mmHg 73%
    19:00 +21°C° 0.8 mm 3 m/s 740 mmHg 82%
    20:00 +21°C° 0.6 mm 2 m/s 740 mmHg 84%
    21:00 +20°C° 0.6 mm 2 m/s 740 mmHg 85%
    22:00 +19°C° 0.6 mm 2 m/s 741 mmHg 87%
    23:00 +19°C° 0 mm 2 m/s 741 mmHg 88%

    22 Iulie, Luni

    Timp Temperatura Precipitaţii Vânt Presiune Umiditate
    00:00 +19°C° 0 mm 3 m/s 741 mmHg 89%
    01:00 +18°C° 0 mm 3 m/s 741 mmHg 90%
    02:00 +18°C° 0 mm 3 m/s 741 mmHg 91%
    03:00 +18°C° 0 mm 3 m/s 741 mmHg 93%
    04:00 +17°C° 0 mm 3 m/s 741 mmHg 94%
    05:00 +18°C° 0.1 mm 3 m/s 741 mmHg 89%
    06:00 +19°C° 0.1 mm 4 m/s 741 mmHg 85%
    07:00 +20°C° 0.1 mm 4 m/s 742 mmHg 80%
    08:00 +21°C° 0.5 mm 4 m/s 742 mmHg 77%
    09:00 +22°C° 0.5 mm 4 m/s 742 mmHg 73%
    10:00 +24°C° 0.5 mm 3 m/s 742 mmHg 70%
    11:00 +24°C° 0.9 mm 3 m/s 741 mmHg 68%
    12:00 +25°C° 0.9 mm 3 m/s 741 mmHg 66%
    13:00 +25°C° 0.9 mm 3 m/s 741 mmHg 63%
    14:00 +25°C° 0.6 mm 4 m/s 741 mmHg 64%
    15:00 +25°C° 0.6 mm 4 m/s 741 mmHg 64%
    16:00 +23°C° 0.6 mm 5 m/s 740 mmHg 64%
    17:00 +22°C° 0.5 mm 4 m/s 740 mmHg 68%
    18:00 +21°C° 0.5 mm 3 m/s 740 mmHg 73%
    19:00 +20°C° 0.5 mm 3 m/s 740 mmHg 78%
    20:00 +19°C° 0.1 mm 3 m/s 741 mmHg 81%
    21:00 +17°C° 0.1 mm 2 m/s 741 mmHg 84%
    22:00 +16°C° 0.1 mm 2 m/s 741 mmHg 87%
    23:00 +16°C° 0 mm 2 m/s 741 mmHg 89%
    Arată mai mult